Air Resources Laboratory banner image
Air Resources Laboratory web site National Oceanic and Atmospheric Administration (NOAA)

in roundup


Office: IND

ASUS43 KIND 191000
RWRIN

WEATHER ROUNDUP FOR INDIANA
NATIONAL WEATHER SERVICE INDIANAPOLIS IN
600 AM EDT FRI OCT 19 2018

NOTE: "FAIR" INDICATES FEW OR NO CLOUDS BELOW 12,000 FEET WITH NO
SIGNIFICANT WEATHER AND/OR OBSTRUCTIONS TO VISIBILITY.

* - STATION DOES NOT REPORT WEATHER SUCH AS PRECIPITATION OR FOG.

+ - STATION NOT QUALITY CONTROLLED BY THE NATIONAL WEATHER SERVICE.
    USE DATA WITH CAUTION...ESPECIALLY DEWPOINT AND RELATIVE
    HUMIDITY OBSERVATIONS.

INZ001>003-010>013-019-020-191100-
NORTHWEST INDIANA

CITY           SKY/WX    TMP DP  RH WIND       PRES   REMARKS
GARY /AIRPORT/ MOCLDY    46  30  53 SW8       30.23F
MICHIGAN CITY+ FAIR      45  30  57 S8        30.24F
MONTICELLO +   FAIR      39  32  76 S5        30.27F WCI  36

$$

LMZ046-743>745-191100-
SOUTHERN LAKE MICHIGAN

STATION/POSITION TIME  TEMP    WIND        PRES    WAVE
                       AIR SEA DIR/SP/G            HT
                 (UTC) (F)     (DEG/KT/KT) (MB)    (FT)
BURNS HARBOR     0940   47     200/  7/ 10 1023.7F
MICHIGAN CITY    0930   47     190/ 13/ 14   N/A
5NW MICH CITY    0950   50 57  220/ 16/ 19   N/A     3

$$

INZ004-005-014>016-021>024-191100-
NORTH CENTRAL INDIANA

CITY           SKY/WX    TMP DP  RH WIND       PRES   REMARKS
GOSHEN         FAIR      39  32  76 SW6       30.25F WCI  35
PERU/GRISSOM   FAIR      37  33  85 S5        30.26F WCI  34
SOUTH BEND     FAIR      41  29  62 SW9       30.24F
WARSAW +       FAIR      41  32  70 CALM      30.27S

$$

INZ006>009-017-018-025>027-191100-
NORTHEAST INDIANA

CITY           SKY/WX    TMP DP  RH WIND       PRES   REMARKS
ANGOLA *+      FAIR      41  30  65 CALM      30.25F
FORT WAYNE     FAIR      37  34  89 SW7       30.28F WCI  32
KENDALLVILLE + FAIR      40  28  63 SW7       30.26F WCI  35

$$

INZ028-029-035-036-043>045-051>053-191100-
WEST CENTRAL INDIANA

CITY           SKY/WX    TMP DP  RH WIND       PRES   REMARKS
CRAWFORDSVL +  FAIR      32  32 100 CALM      30.28F
GREENCASTLE +  FAIR      32  32 100 CALM      30.29F
LAFAYETTE      FAIR      35  33  92 CALM      30.28F
TERRE HAUTE    FAIR      32  31  96 SE3       30.28F

$$

INZ030>032-037>040-046>048-054>057-064-065-191100-
CENTRAL INDIANA

CITY           SKY/WX    TMP DP  RH WIND       PRES   REMARKS
ANDERSON +     FAIR      38  32  80 CALM      30.31S
INDIANAPOLIS   FAIR      38  34  85 CALM      30.30F
-EAGLE CREEK   FAIR      36  34  92 CALM      30.29F
KOKOMO +       FAIR      40  33  76 S7        30.29F WCI  35
MT COMFORT *+  FAIR      36  36 100 S5        30.31S WCI  32
SHELBYVILLE    FAIR      36  32  85 S5        30.31F WCI  32

$$

INZ033-034-041-042-049-050-058-059-191100-
EAST CENTRAL INDIANA

CITY           SKY/WX    TMP DP  RH WIND       PRES   REMARKS
MUNCIE         FAIR      41  31  67 S5        30.30F

$$

INZ060-061-067>069-081>083-085>088-191100-
SOUTHWEST INDIANA

CITY           SKY/WX    TMP DP  RH WIND       PRES   REMARKS
EVANSVILLE     FAIR      36  35  96 CALM      30.30F
HUNTINGBURG +  FAIR      35  34  96 CALM        N/A

$$

INZ062-063-066-070>080-084-089>092-191100-
SOUTH CENTRAL AND SOUTHEAST INDIANA

CITY           SKY/WX    TMP DP  RH WIND       PRES   REMARKS
BLOOMINGTON    FAIR      33  32  96 CALM      30.30F
FRENCH LICK *+ FAIR      36  30  80 CALM      30.31S
SEYMOUR +      FAIR      34 N/A N/A CALM      30.33F

$$



ASUS43 KIND 191009
RWRIN

WEATHER ROUNDUP FOR INDIANA
NATIONAL WEATHER SERVICE INDIANAPOLIS IN
600 AM EDT FRI OCT 19 2018

NOTE: "FAIR" INDICATES FEW OR NO CLOUDS BELOW 12,000 FEET WITH NO
SIGNIFICANT WEATHER AND/OR OBSTRUCTIONS TO VISIBILITY.

* - STATION DOES NOT REPORT WEATHER SUCH AS PRECIPITATION OR FOG.

+ - STATION NOT QUALITY CONTROLLED BY THE NATIONAL WEATHER SERVICE.
    USE DATA WITH CAUTION...ESPECIALLY DEWPOINT AND RELATIVE
    HUMIDITY OBSERVATIONS.

INZ001>003-010>013-019-020-191100-
NORTHWEST INDIANA

CITY           SKY/WX    TMP DP  RH WIND       PRES   REMARKS
GARY /AIRPORT/ MOCLDY    46  30  53 SW8       30.23F
KNOX *+        FAIR      37  32  81 S6        30.25F WCI  33
LA PORTE +     FAIR      39  32  75 SW5       30.25F WCI  36
MICHIGAN CITY+ FAIR      45  30  57 S8        30.24F
MONTICELLO +   FAIR      40  32  74 S3        30.26F
RENSSELAER +   FAIR      37  32  81 CALM      30.26F
VALPARAISO     FAIR      41  30  65 S3        30.25F

$$

LMZ046-743>745-191100-
SOUTHERN LAKE MICHIGAN

STATION/POSITION TIME  TEMP    WIND        PRES    WAVE
                       AIR SEA DIR/SP/G            HT
                 (UTC) (F)     (DEG/KT/KT) (MB)    (FT)
BURNS HARBOR     0940   47     200/  7/ 10 1023.7F
MICHIGAN CITY    0940   47     190/ 12/ 15   N/A
5NW MICH CITY    1000   51 57  230/ 16/ 21   N/A     3

$$

INZ004-005-014>016-021>024-191100-
NORTH CENTRAL INDIANA

CITY           SKY/WX    TMP DP  RH WIND       PRES   REMARKS
GOSHEN         FAIR      39  32  76 SW6       30.25F WCI  35
LOGANSPORT +   FAIR      36  32  87 S5        30.28F WCI  32
PERU/GRISSOM   FAIR      37  33  85 S5        30.26F WCI  34
ROCHESTER +    FAIR      43  32  65 SW6       30.27F
SOUTH BEND     FAIR      41  29  62 SW9       30.24F
WARSAW +       FAIR      41  32  70 CALM      30.27S

$$

INZ006>009-017-018-025>027-191100-
NORTHEAST INDIANA

CITY           SKY/WX    TMP DP  RH WIND       PRES   REMARKS
ANGOLA *+      FAIR      41  30  65 CALM      30.25F
AUBURN +       FAIR      37  32  81 SW3       30.28S
FORT WAYNE     FAIR      37  34  89 SW7       30.28F WCI  32
HUNTINGTON +   FAIR      38  32  81 SW3       30.29S
KENDALLVILLE + FAIR      40  28  63 SW7       30.26F WCI  35

$$

INZ028-029-035-036-043>045-051>053-191100-
WEST CENTRAL INDIANA

CITY           SKY/WX    TMP DP  RH WIND       PRES   REMARKS
CRAWFORDSVL +  FAIR      32  32 100 CALM      30.28F
GREENCASTLE +  FAIR      32  32 100 CALM      30.29F
LAFAYETTE      FAIR      35  33  92 CALM      30.28F
TERRE HAUTE    FAIR      32  31  96 SE3       30.28F

$$

INZ030>032-037>040-046>048-054>057-064-065-191100-
CENTRAL INDIANA

CITY           SKY/WX    TMP DP  RH WIND       PRES   REMARKS
ANDERSON +     FAIR      38  32  80 CALM      30.31S
FISHERS *+     FAIR      36  36 100 CALM      30.30F
FRANKFORT +    FAIR      39  33  78 CALM      30.29F
GREENWOOD *+   FAIR      35  33  90 CALM      30.30F
INDIANAPOLIS   FAIR      38  34  85 CALM      30.30F
-EAGLE CREEK   FAIR      36  34  92 CALM      30.29F
KOKOMO +       FAIR      40  33  76 S7        30.29F WCI  35
MARION +       FAIR      36  36 100 CALM      30.30S
MT COMFORT *+  FAIR      36  36 100 S5        30.31S WCI  32
SHELBYVILLE    FAIR      36  32  85 S5        30.31F WCI  32
ZIONSVILLE +   FAIR      33  33  99 SE5       30.29F WCI  29

$$

INZ033-034-041-042-049-050-058-059-191100-
EAST CENTRAL INDIANA

CITY           SKY/WX    TMP DP  RH WIND       PRES   REMARKS
MUNCIE         FAIR      41  31  67 S5        30.30F

$$

INZ060-061-067>069-081>083-085>088-191100-
SOUTHWEST INDIANA

CITY           SKY/WX    TMP DP  RH WIND       PRES   REMARKS
EVANSVILLE     FAIR      36  35  96 CALM      30.30F
HUNTINGBURG +  FAIR      35  34  96 CALM        N/A
WASHINGTON +   FAIR      35  33  93 CALM      30.30F

$$

INZ062-063-066-070>080-084-089>092-191100-
SOUTH CENTRAL AND SOUTHEAST INDIANA

CITY           SKY/WX    TMP DP  RH WIND       PRES   REMARKS
BEDFORD +      FAIR      34  32  93 CALM      30.31F
BLOOMINGTON    FAIR      33  32  96 CALM      30.30F
FRENCH LICK *+ FAIR      36  30  80 CALM      30.31S
MADISON *+     FAIR      32  32 100 CALM      30.34S
SEYMOUR +      FAIR      34 N/A N/A CALM      30.33F

$$